VTD535 UWSG-UWSG

Flight info

Callsign VTD535
Flight time 1h 7m
Altitude 3000
Route RA/A040
Aircraft C172/L-S/C

Departure

Time 2026-04-26 10:47
Airport Gagarin International Airport (UWSG)

Arrival

Time 2026-04-26 11:54
Airport Gagarin International Airport (UWSG)
Time Latitude Longitude Altitude Speed Heading
2026-04-26 10:24 51.71596 46.17173 84 ft 0 kts
2026-04-26 10:37 51.71640 46.17190 85 ft 8 kts 58°
2026-04-26 10:38 51.71633 46.17286 85 ft 9 kts 140°
2026-04-26 10:38 51.71572 46.17354 84 ft 11 kts 145°
2026-04-26 10:38 51.71517 46.17414 84 ft 7 kts 148°
2026-04-26 10:38 51.71475 46.17431 83 ft 7 kts 182°
2026-04-26 10:39 51.71438 46.17429 82 ft 0 kts 180°
2026-04-26 10:39 51.71431 46.17429 82 ft 0 kts 180°
2026-04-26 10:44 51.71419 46.17428 82 ft 10 kts 181°
2026-04-26 10:44 51.71301 46.17419 79 ft 17 kts 187°
2026-04-26 10:44 51.71258 46.17343 78 ft 0 kts 272°
2026-04-26 10:46 51.71258 46.17338 78 ft 6 kts 272°
2026-04-26 10:46 51.71275 46.16861 90 ft 68 kts 259°
2026-04-26 10:46 51.71304 46.16224 388 ft 58 kts 245°
2026-04-26 10:46 51.71313 46.15515 630 ft 63 kts 251°
2026-04-26 10:47 51.71330 46.14824 903 ft 60 kts 250°
2026-04-26 10:47 51.71342 46.14158 1178 ft 59 kts 250°
2026-04-26 10:47 51.71359 46.13572 1483 ft 53 kts 247°
2026-04-26 10:47 51.71282 46.12861 1596 ft 72 kts 240°
2026-04-26 10:48 51.71140 46.12044 1859 ft 72 kts 242°
2026-04-26 10:48 51.71040 46.11281 2073 ft 75 kts 245°
2026-04-26 10:48 51.70933 46.10335 2021 ft 91 kts 247°
2026-04-26 10:48 51.70866 46.09353 2083 ft 89 kts 263°
2026-04-26 10:49 51.71217 46.08440 2067 ft 110 kts 311°
2026-04-26 10:49 51.72000 46.08101 2028 ft 127 kts 353°
2026-04-26 10:49 51.72857 46.08067 2102 ft 118 kts 342°
2026-04-26 10:49 51.73624 46.07756 2154 ft 114 kts 328°
2026-04-26 10:50 51.74352 46.07219 2150 ft 114 kts 318°
2026-04-26 10:50 51.74804 46.06771 2154 ft 113 kts 314°
2026-04-26 10:50 51.75795 46.06073 2151 ft 120 kts 330°
2026-04-26 10:50 51.76614 46.05718 2150 ft 125 kts 343°
2026-04-26 10:51 51.77491 46.05557 2161 ft 127 kts 345°
2026-04-26 10:51 51.79267 46.05656 2138 ft 134 kts 25°
2026-04-26 10:51 51.80047 46.06425 2142 ft 132 kts 32°
2026-04-26 10:52 51.80848 46.07188 2151 ft 131 kts 22°
2026-04-26 10:52 51.81699 46.07702 2155 ft 130 kts 14°
2026-04-26 10:52 51.82558 46.08145 2162 ft 130 kts 14°
2026-04-26 10:52 51.83356 46.08557 2178 ft 130 kts 13°
2026-04-26 10:53 51.84160 46.09229 2178 ft 130 kts 46°
2026-04-26 10:53 51.84581 46.10456 2177 ft 122 kts 86°
2026-04-26 10:53 51.84664 46.11797 2185 ft 118 kts 98°
2026-04-26 10:54 51.84235 46.14118 2181 ft 104 kts 130°
2026-04-26 10:54 51.83876 46.15137 2199 ft 102 kts 135°
2026-04-26 10:54 51.83447 46.16034 2178 ft 103 kts 141°
2026-04-26 10:54 51.82967 46.16949 2052 ft 107 kts 142°
2026-04-26 10:55 51.82510 46.17907 1972 ft 107 kts 134°
2026-04-26 10:55 51.82126 46.18931 1961 ft 104 kts 133°
2026-04-26 10:55 51.81765 46.19922 1965 ft 102 kts 133°
2026-04-26 10:55 51.81410 46.20896 1958 ft 100 kts 133°
2026-04-26 10:56 51.81060 46.21877 1966 ft 99 kts 132°
2026-04-26 10:56 51.80713 46.22843 1965 ft 100 kts 133°
2026-04-26 10:56 51.80358 46.23826 1964 ft 102 kts 132°
2026-04-26 10:56 51.79994 46.24807 1964 ft 102 kts 133°
2026-04-26 10:57 51.79620 46.25801 1967 ft 102 kts 133°
2026-04-26 10:57 51.79129 46.26520 1963 ft 92 kts 162°
2026-04-26 10:57 51.78533 46.26763 1968 ft 86 kts 183°
2026-04-26 10:57 51.77939 46.26751 1973 ft 85 kts 187°
2026-04-26 10:58 51.77339 46.26701 1972 ft 85 kts 187°
2026-04-26 10:58 51.76747 46.26646 1967 ft 85 kts 187°
2026-04-26 10:58 51.76160 46.26595 1969 ft 84 kts 188°
2026-04-26 10:58 51.75584 46.26487 1966 ft 83 kts 191°
2026-04-26 10:59 51.75001 46.26361 1968 ft 83 kts 191°
2026-04-26 10:59 51.74442 46.26132 1967 ft 82 kts 199°
2026-04-26 10:59 51.73902 46.25833 1967 ft 82 kts 200°
2026-04-26 10:59 51.73352 46.25594 1972 ft 82 kts 193°
2026-04-26 11:00 51.72787 46.25429 1965 ft 82 kts 192°
2026-04-26 11:00 51.72224 46.25227 1969 ft 82 kts 197°
2026-04-26 11:00 51.71687 46.24920 1969 ft 82 kts 201°
2026-04-26 11:00 51.71158 46.24591 1971 ft 82 kts 201°
2026-04-26 11:01 51.70618 46.24251 1970 ft 82 kts 201°
2026-04-26 11:01 51.70076 46.23960 1972 ft 83 kts 194°
2026-04-26 11:01 51.69507 46.23799 1967 ft 83 kts 192°
2026-04-26 11:01 51.68941 46.23661 1970 ft 83 kts 192°
2026-04-26 11:02 51.68360 46.23524 1971 ft 86 kts 191°
2026-04-26 11:02 51.67764 46.23382 1972 ft 87 kts 191°
2026-04-26 11:02 51.67161 46.23239 1968 ft 87 kts 191°
2026-04-26 11:02 51.66559 46.23091 1969 ft 87 kts 191°
2026-04-26 11:03 51.65955 46.22949 1966 ft 87 kts 191°
2026-04-26 11:03 51.65347 46.22802 1964 ft 88 kts 191°
2026-04-26 11:03 51.64743 46.22642 1953 ft 87 kts 192°
2026-04-26 11:03 51.64151 46.22465 1965 ft 87 kts 195°
2026-04-26 11:04 51.63548 46.22284 1953 ft 86 kts 194°
2026-04-26 11:04 51.62969 46.22107 1944 ft 85 kts 195°
2026-04-26 11:04 51.62392 46.21916 1948 ft 83 kts 194°
2026-04-26 11:04 51.61821 46.21728 1953 ft 83 kts 194°
2026-04-26 11:05 51.61257 46.21516 1965 ft 84 kts 195°
2026-04-26 11:05 51.60684 46.21288 1969 ft 85 kts 196°
2026-04-26 11:05 51.60108 46.20996 1970 ft 86 kts 199°
2026-04-26 11:05 51.59538 46.20683 1965 ft 87 kts 199°
2026-04-26 11:06 51.58963 46.20368 1964 ft 86 kts 199°
2026-04-26 11:06 51.58401 46.20048 1964 ft 86 kts 204°
2026-04-26 11:06 51.57972 46.19379 1966 ft 88 kts 226°
2026-04-26 11:06 51.57626 46.18556 1968 ft 88 kts 230°
2026-04-26 11:07 51.57296 46.17728 1969 ft 89 kts 230°
2026-04-26 11:07 51.56966 46.16879 1968 ft 89 kts 231°
2026-04-26 11:07 51.56635 46.16045 1969 ft 89 kts 227°
2026-04-26 11:07 51.56263 46.15250 1966 ft 88 kts 226°
2026-04-26 11:08 51.55888 46.14471 1967 ft 88 kts 225°
2026-04-26 11:08 51.55509 46.13695 1965 ft 88 kts 224°
2026-04-26 11:08 51.55123 46.12932 1962 ft 87 kts 224°
2026-04-26 11:08 51.54738 46.12173 1963 ft 87 kts 224°
2026-04-26 11:09 51.54338 46.11435 1961 ft 87 kts 221°
2026-04-26 11:09 51.53934 46.10754 1961 ft 81 kts 220°
2026-04-26 11:09 51.53547 46.10103 1961 ft 79 kts 220°
2026-04-26 11:09 51.53172 46.09471 1963 ft 78 kts 220°
2026-04-26 11:10 51.52798 46.08842 1965 ft 77 kts 220°
2026-04-26 11:10 51.52422 46.08215 1967 ft 77 kts 220°
2026-04-26 11:10 51.52047 46.07588 1966 ft 77 kts 220°
2026-04-26 11:10 51.51679 46.06976 1963 ft 76 kts 220°
2026-04-26 11:11 51.51301 46.06352 1967 ft 77 kts 220°
2026-04-26 11:11 51.50925 46.05725 1965 ft 78 kts 220°
2026-04-26 11:11 51.50543 46.05082 1969 ft 79 kts 220°
2026-04-26 11:11 51.50165 46.04446 1969 ft 79 kts 220°
2026-04-26 11:12 51.49663 46.04267 2042 ft 86 kts 168°
2026-04-26 11:12 51.49270 46.05125 2050 ft 114 kts 113°
2026-04-26 11:12 51.49445 46.06417 2034 ft 127 kts 63°
2026-04-26 11:12 51.50106 46.07398 1994 ft 130 kts 40°
2026-04-26 11:13 51.50825 46.08310 1943 ft 132 kts 40°
2026-04-26 11:13 51.51540 46.09203 1934 ft 129 kts 39°
2026-04-26 11:13 51.52239 46.10056 1957 ft 125 kts 39°
2026-04-26 11:13 51.52931 46.10899 1979 ft 122 kts 39°
2026-04-26 11:14 51.53606 46.11718 2003 ft 120 kts 39°
2026-04-26 11:14 51.54270 46.12526 2017 ft 120 kts 38°
2026-04-26 11:14 51.54942 46.13351 1992 ft 124 kts 40°
2026-04-26 11:14 51.55613 46.14242 1968 ft 127 kts 41°
2026-04-26 11:15 51.56300 46.15160 1940 ft 129 kts 41°
2026-04-26 11:15 51.56977 46.16064 2011 ft 124 kts 41°
2026-04-26 11:15 51.57638 46.16948 2148 ft 123 kts 41°
2026-04-26 11:15 51.58290 46.17825 2315 ft 120 kts 41°
2026-04-26 11:16 51.58928 46.18665 2467 ft 119 kts 37°
2026-04-26 11:16 51.59687 46.19233 2483 ft 124 kts
2026-04-26 11:16 51.60485 46.18914 2436 ft 119 kts 319°
2026-04-26 11:16 51.61192 46.18196 2377 ft 120 kts 313°
2026-04-26 11:17 51.61874 46.17422 2381 ft 115 kts 309°
2026-04-26 11:17 51.62439 46.16602 2448 ft 105 kts 296°
2026-04-26 11:17 51.62873 46.15685 2491 ft 101 kts 286°
2026-04-26 11:17 51.63221 46.14704 2494 ft 102 kts 282°
2026-04-26 11:18 51.63505 46.13637 2446 ft 106 kts 279°
2026-04-26 11:18 51.63833 46.12564 2450 ft 106 kts 282°
2026-04-26 11:18 51.64173 46.11543 2496 ft 102 kts 283°
2026-04-26 11:18 51.64463 46.10496 2487 ft 101 kts 276°
2026-04-26 11:19 51.64703 46.09382 2381 ft 110 kts 274°
2026-04-26 11:19 51.64937 46.08275 2441 ft 103 kts 275°
2026-04-26 11:19 51.65195 46.07186 2441 ft 104 kts 278°
2026-04-26 11:19 51.65416 46.06093 2436 ft 102 kts 272°
2026-04-26 11:20 51.65702 46.05023 2435 ft 106 kts 282°
2026-04-26 11:20 51.65926 46.04311 2432 ft 107 kts 283°
2026-04-26 11:20 51.66419 46.02914 2430 ft 107 kts 285°
2026-04-26 11:20 51.66792 46.01907 2453 ft 104 kts 285°
2026-04-26 11:21 51.67157 46.00898 2450 ft 101 kts 281°
2026-04-26 11:21 51.67425 45.99883 2454 ft 98 kts 276°
2026-04-26 11:21 51.67634 45.98863 2459 ft 93 kts 266°
2026-04-26 11:21 51.67739 45.97831 2452 ft 93 kts 264°
2026-04-26 11:22 51.67818 45.96791 2453 ft 91 kts 260°
2026-04-26 11:22 51.67807 45.95785 2453 ft 87 kts 248°
2026-04-26 11:22 51.67680 45.94841 2447 ft 86 kts 245°
2026-04-26 11:22 51.67540 45.93903 2445 ft 86 kts 245°
2026-04-26 11:23 51.67395 45.92958 2444 ft 86 kts 245°
2026-04-26 11:23 51.67255 45.92034 2451 ft 85 kts 244°
2026-04-26 11:23 51.67150 45.91087 2448 ft 88 kts 254°
2026-04-26 11:23 51.67148 45.90087 2458 ft 89 kts 257°
2026-04-26 11:24 51.67162 45.89085 2452 ft 90 kts 257°
2026-04-26 11:24 51.67178 45.88071 2454 ft 90 kts 257°
2026-04-26 11:24 51.67194 45.87061 2455 ft 90 kts 256°
2026-04-26 11:24 51.67015 45.86175 2462 ft 81 kts 228°
2026-04-26 11:25 51.66640 45.85512 2461 ft 79 kts 218°
2026-04-26 11:25 51.66228 45.84914 2461 ft 80 kts 217°
2026-04-26 11:25 51.65849 45.84375 2462 ft 80 kts 217°
2026-04-26 11:25 51.65428 45.83786 2464 ft 79 kts 217°
2026-04-26 11:26 51.65007 45.83196 2463 ft 80 kts 217°
2026-04-26 11:26 51.64591 45.82606 2459 ft 80 kts 217°
2026-04-26 11:26 51.64172 45.82003 2461 ft 81 kts 221°
2026-04-26 11:26 51.64023 45.81085 2448 ft 95 kts 265°
2026-04-26 11:27 51.64395 45.80100 2439 ft 113 kts 307°
2026-04-26 11:27 51.65159 45.79642 2442 ft 125 kts 348°
2026-04-26 11:27 51.66009 45.79984 2447 ft 129 kts 31°
2026-04-26 11:27 51.66639 45.80959 2451 ft 126 kts 49°
2026-04-26 11:28 51.67432 45.81600 2462 ft 127 kts 13°
2026-04-26 11:28 51.68277 45.82072 2449 ft 130 kts 25°
2026-04-26 11:28 51.69011 45.82893 2446 ft 128 kts 51°
2026-04-26 11:28 51.69389 45.84116 2452 ft 118 kts 87°
2026-04-26 11:29 51.69518 45.85418 2442 ft 111 kts 107°
2026-04-26 11:29 51.69322 45.86541 2447 ft 101 kts 127°
2026-04-26 11:29 51.69026 45.87553 2453 ft 100 kts 130°
2026-04-26 11:29 51.68718 45.88563 2458 ft 100 kts 129°
2026-04-26 11:30 51.68414 45.89601 2463 ft 105 kts 123°
2026-04-26 11:30 51.68284 45.90370 2461 ft 108 kts 117°
2026-04-26 11:30 51.68086 45.91989 2459 ft 111 kts 111°
2026-04-26 11:30 51.67967 45.93214 2457 ft 111 kts 111°
2026-04-26 11:31 51.67910 45.94464 2458 ft 112 kts 104°
2026-04-26 11:31 51.67876 45.95724 2464 ft 113 kts 103°
2026-04-26 11:31 51.67842 45.96981 2464 ft 113 kts 103°
2026-04-26 11:31 51.67744 45.98215 2460 ft 109 kts 114°
2026-04-26 11:32 51.67573 45.99399 2463 ft 106 kts 118°
2026-04-26 11:32 51.67368 46.00534 2471 ft 106 kts 120°
2026-04-26 11:32 51.67162 46.01673 2462 ft 105 kts 122°
2026-04-26 11:32 51.66867 46.02726 2461 ft 102 kts 129°
2026-04-26 11:33 51.66551 46.03762 2457 ft 102 kts 129°
2026-04-26 11:33 51.66238 46.04780 2464 ft 102 kts 130°
2026-04-26 11:33 51.65926 46.05824 2459 ft 104 kts 126°
2026-04-26 11:33 51.65641 46.06883 2458 ft 103 kts 127°
2026-04-26 11:34 51.65348 46.07954 2455 ft 103 kts 127°
2026-04-26 11:34 51.65055 46.09009 2456 ft 104 kts 130°
2026-04-26 11:34 51.64759 46.10086 2456 ft 104 kts 127°
2026-04-26 11:34 51.64456 46.11142 2459 ft 102 kts 131°
2026-04-26 11:35 51.64108 46.12133 2460 ft 102 kts 133°
2026-04-26 11:35 51.63753 46.13120 2457 ft 101 kts 133°
2026-04-26 11:35 51.63397 46.14100 2455 ft 101 kts 132°
2026-04-26 11:35 51.63037 46.15081 2464 ft 102 kts 132°
2026-04-26 11:36 51.62667 46.16069 2470 ft 103 kts 133°
2026-04-26 11:36 51.62250 46.16979 2468 ft 100 kts 141°
2026-04-26 11:36 51.61804 46.17843 2470 ft 100 kts 142°
2026-04-26 11:36 51.61350 46.18713 2467 ft 101 kts 142°
2026-04-26 11:37 51.60894 46.19600 2464 ft 102 kts 141°
2026-04-26 11:37 51.60445 46.20470 2463 ft 101 kts 141°
2026-04-26 11:37 51.59990 46.21347 2468 ft 101 kts 141°
2026-04-26 11:37 51.59537 46.22219 2464 ft 101 kts 142°
2026-04-26 11:38 51.59107 46.23110 2495 ft 102 kts 134°
2026-04-26 11:38 51.58979 46.24301 2551 ft 122 kts 85°
2026-04-26 11:38 51.59586 46.25295 2533 ft 137 kts
2026-04-26 11:38 51.60310 46.24732 2390 ft 112 kts 279°
2026-04-26 11:39 51.60508 46.23590 2437 ft 99 kts 270°
2026-04-26 11:39 51.60637 46.22562 2510 ft 92 kts 264°
2026-04-26 11:39 51.60731 46.21549 2583 ft 86 kts 255°
2026-04-26 11:39 51.60468 46.20778 2615 ft 82 kts 219°
2026-04-26 11:40 51.59942 46.20570 2615 ft 93 kts 168°
2026-04-26 11:40 51.59648 46.21550 2645 ft 120 kts 81°
2026-04-26 11:40 51.60327 46.22331 2587 ft 131 kts 355°
2026-04-26 11:40 51.61039 46.21701 2513 ft 112 kts 290°
2026-04-26 11:41 51.61138 46.20606 2474 ft 96 kts 250°
2026-04-26 11:42 51.60950 46.19880 2514 ft 75 kts 211°
2026-04-26 11:43 51.60479 46.19529 2585 ft 75 kts 198°
2026-04-26 11:43 51.59957 46.19542 2617 ft 87 kts 161°
2026-04-26 11:43 51.59649 46.20516 2614 ft 117 kts 101°
2026-04-26 11:43 51.60027 46.21768 2578 ft 132 kts 41°
2026-04-26 11:44 51.60892 46.22087 2512 ft 126 kts 337°
2026-04-26 11:44 51.61490 46.21304 2446 ft 104 kts 277°
2026-04-26 11:44 51.61424 46.20280 2409 ft 87 kts 239°
2026-04-26 11:44 51.61134 46.19494 2496 ft 75 kts 222°
2026-04-26 11:45 51.60678 46.19353 2499 ft 89 kts 160°
2026-04-26 11:45 51.60358 46.20415 2279 ft 120 kts 106°
2026-04-26 11:45 51.60520 46.21773 2150 ft 129 kts 77°
2026-04-26 11:45 51.60926 46.23019 2200 ft 113 kts 67°
2026-04-26 11:46 51.61324 46.24066 2300 ft 110 kts 64°
2026-04-26 11:46 51.61779 46.25143 2290 ft 123 kts 59°
2026-04-26 11:46 51.62475 46.26046 2242 ft 135 kts 29°
2026-04-26 11:46 51.63307 46.26818 2168 ft 140 kts 28°
2026-04-26 11:47 51.64162 46.27583 2091 ft 139 kts 27°
2026-04-26 11:47 51.65016 46.28285 2017 ft 137 kts 26°
2026-04-26 11:47 51.65861 46.28970 1974 ft 133 kts 26°
2026-04-26 11:47 51.66720 46.29469 1971 ft 128 kts 11°
2026-04-26 11:48 51.67585 46.29703 1969 ft 124 kts
2026-04-26 11:48 51.68443 46.29729 1963 ft 121 kts 355°
2026-04-26 11:48 51.69302 46.29723 1968 ft 125 kts 353°
2026-04-26 11:48 51.70173 46.29715 1962 ft 126 kts 353°
2026-04-26 11:49 51.71014 46.30038 1996 ft 126 kts 39°
2026-04-26 11:49 51.71385 46.31204 2038 ft 112 kts 101°
2026-04-26 11:49 51.71091 46.32130 2178 ft 82 kts 162°
2026-04-26 11:49 51.70586 46.32093 2348 ft 67 kts 209°
2026-04-26 11:50 51.70322 46.31404 2200 ft 83 kts 246°
2026-04-26 11:50 51.70511 46.30404 1907 ft 99 kts 286°
2026-04-26 11:50 51.70864 46.29507 1731 ft 93 kts 289°
2026-04-26 11:50 51.71059 46.28651 1636 ft 67 kts 266°
2026-04-26 11:51 51.71155 46.27947 1585 ft 71 kts 258°
2026-04-26 11:51 51.71184 46.27141 1510 ft 74 kts 255°
2026-04-26 11:51 51.71136 46.26349 1390 ft 66 kts 244°
2026-04-26 11:51 51.71077 46.25627 1253 ft 70 kts 247°
2026-04-26 11:52 51.71096 46.24793 1115 ft 74 kts 266°
2026-04-26 11:52 51.71133 46.24036 999 ft 70 kts 252°
2026-04-26 11:52 51.71131 46.23215 820 ft 77 kts 275°
2026-04-26 11:52 51.71141 46.22361 680 ft 76 kts 271°
2026-04-26 11:53 51.71170 46.21500 481 ft 77 kts 259°
2026-04-26 11:53 51.71195 46.20655 364 ft 72 kts 262°
2026-04-26 11:53 51.71205 46.19849 228 ft 75 kts 269°
2026-04-26 11:54 51.71240 46.18278 87 ft 60 kts 265°
2026-04-26 11:54 51.71251 46.17709 81 ft 39 kts 270°
2026-04-26 11:54 51.71255 46.17556 79 ft 0 kts 259°
2026-04-26 11:54 51.71274 46.17433 79 ft 16 kts 316°
2026-04-26 11:55 51.71392 46.17424 81 ft 18 kts
2026-04-26 11:55 51.71431 46.17426 82 ft 0 kts
2026-04-26 11:55 51.71435 46.17427 82 ft 7 kts
2026-04-26 11:56 51.71520 46.17400 84 ft 12 kts 289°
2026-04-26 11:56 51.71528 46.17202 83 ft 19 kts 272°
2026-04-26 11:56 51.71529 46.17069 82 ft 0 kts 274°
2026-04-26 11:56 51.71529 46.17056 81 ft 0 kts 269°
2026-04-26 11:57 51.71529 46.17046 81 ft 3 kts 274°
2026-04-26 11:57 51.71550 46.17028 82 ft 6 kts 15°
2026-04-26 11:57 51.71573 46.17031 83 ft 0 kts
2026-04-26 11:57 51.71574 46.17031 83 ft 0 kts 358°
2026-04-26 11:58 51.71578 46.17032 83 ft 1 kts